{"data":{"norad_id":51721,"epoch":"2026-09-20T04:50:49.509888Z","epoch_age_seconds":73876,"freshness":"FRESH","line1":"1 51721U 22016H   26263.20196192 -.00000613  00000+0 -79794-5 0  9998","line2":"2 51721  53.1594 161.1721 0001227  91.1544 268.9598 15.31696980252992","mean_motion":15.3169698,"eccentricity":0.0001227,"inclination_deg":53.1594,"raan_deg":161.1721,"arg_perigee_deg":91.1544,"mean_anomaly_deg":268.9598,"bstar":-7.9794e-6,"rev_number":25299,"period_min":94.013373324011,"perigee_km":469.90863939137,"apogee_km":471.58935601521,"semimajor_km":6848.8859977033,"source":"CELESTRAK","updated_at":"2026-09-20T09:00:39.599586Z"}}